STARLINK-34445, 64457

Orbit data source: Space-Track

STARLINK-34445, 64457 is a payload satellite owned by SpaceX/Seattle (US) in LEO that was launched on Wed, 18 Jun 2025 UTC via an FALCON 9 launch vehicle from the Air Force Eastern Test Range (AFETR). Payload-class satellites include a variety of spacecraft equipped with specific instruments for various scientific and technological missions. These include communications satellites like Starlink; space stations such as the ISS; scientific satellites like the Hubble; Earth observation satellites from companies like Planet Labs, Umbra, and HawkEye 360; GPS; miniature CubeSats for education and research; and military/defense satellites.

Loading next visibility...
Identifier
64457, 2025-130V
Orbit
LEO
Country
Flag of USUS
Related business
Manufacturer
SpaceX/Seattle
Mission
Operational Commercial Communications
Bus & Motor
STARLINK V2MO, Unknown motor
Mass
575 kg wet, ~530 kg dry
Launch date (UTC)
2025-06-18 (1 year ago)
Launch vehicle
FALCON 9
Launch site
Air Force Eastern Test Range (AFETR)
Object type
Payload
Rocket body
Debris
Shape & HBR
Box + 2 Pan, 17.7 m
Radar Cross Section
36.964 m², Large (>1 m²)

Expand to show TLE details & history
Last TLE update: 16 hours ago

TLE from 16 hours ago
0 STARLINK-34445
1 64457U 25130V   26171.17088375  .00019497  00000-0  58691-3 0  9995
2 64457  53.1612 331.0847 0001140  85.1713 274.9420 15.34387695 56418
Epoch: 2026-06-20T04:06Z
TLE epoch observation values (Epoch: 2026-06-20T04:06:04.355Z)
Latitude
0.00002°
Longitude
1.17722°
Altitude
463.574 km
Speed
7.636 km/s
True Right ascension
22h 04m 20s
True Declination
0° 00' 00"
Sunlit
Object was in full shadow at epoch
Visualization orbit readout
Latitude
Unknown
Longitude
Unknown
Altitude
Unknown
Speed
Unknown
Apparent Right ascension
Unknown
Apparent Declination
Unknown
Sunlit
N/A
Visualization observer readout
Local Sidereal Time
07:15:50
Azimuth
Unknown
Elevation
Unknown
Doppler factor
Unknown
Orbital elements
Apogee altitude
463.776 km
Perigee altitude
462.217 km
Semi-major axis
6,841.134 km
Eccentricity
0.00011
Inclination
53.1612°
RAAN
331.0847°
Arg. of periapsis
85.1713°
True anomaly
274.92898°
Mean anomaly
274.942°
Eccentric anomaly
274.93549°
Mean motion
3.83576 °/min
Orbital period
93.85 mins
BSTAR
0.00058691
Loading maneuver chart data...
Computing Atmospheric mass density...
Loading historical data...
Loading historical data...
Loading historical data...
Loading historical data...
Loading historical data...
Loading historical data...
Loading historical data...

Documentation

Showing up to 5 results
|